Location: Unspecified
(42.9300°N, 71.1866°W)
Time: 00:40:47
(UTC-04:00)

GENESIS II - Visible Passes

Search period start: 26 May 2016 00:00
Search period end: 05 June 2016 00:00
Orbit: 483 x 557 km, 64.5° (Epoch: 25 May)

Date Brightness Start Highest point End Pass type
(mag) Time Alt. Az. Time Alt. Az. Time Alt. Az.
26 May 6.6 03:23:24 10° NNW 03:27:01 28° NE 03:30:35 10° ESE visible
27 May 6.4 03:09:02 10° NNW 03:12:41 29° NE 03:16:18 10° ESE visible
28 May 6.3 02:54:39 10° NNW 02:58:22 31° NE 03:02:00 10° ESE visible
28 May 5.2 04:32:32 10° NW 04:36:05 28° WSW 04:39:34 10° S visible
29 May 6.2 02:40:17 10° NNW 02:44:02 32° NE 02:47:43 10° ESE visible
29 May 5.2 04:18:14 10° WNW 04:21:43 27° WSW 04:25:08 10° S visible
30 May 6.0 02:25:54 10° NNW 02:29:42 33° NE 02:33:25 10° ESE visible
30 May 5.3 04:03:56 10° WNW 04:07:21 25° WSW 04:10:42 10° S visible
31 May 5.9 02:11:32 10° NNW 02:15:21 35° NE 02:19:07 10° ESE visible
31 May 5.4 03:49:38 10° WNW 03:52:59 24° WSW 03:55:24 14° SSW visible
01 Jun 5.7 01:57:09 10° NNW 02:01:01 37° NE 02:04:22 13° ESE visible
01 Jun 5.5 03:35:21 10° WNW 03:38:36 23° WSW 03:39:19 22° SW visible
02 Jun 5.6 01:42:46 10° NNW 01:46:40 39° NE 01:48:53 21° ESE visible
02 Jun 5.7 03:21:04 10° WNW 03:23:53 21° WSW 03:23:53 21° WSW visible
03 Jun 5.5 01:28:23 10° NNW 01:32:19 41° NE 01:33:47 29° E visible
03 Jun 6.0 03:06:47 10° WNW 03:08:47 19° W 03:08:47 19° W visible
04 Jun 5.3 01:14:01 10° NNW 01:17:59 43° NE 01:18:55 36° E visible
04 Jun 6.2 02:52:30 10° WNW 02:53:56 16° W 02:53:56 16° W visible
